DW0860 Weather Reports


Display with metric or nautical units.
time (UTC)temp
F
wind
direction
speed
MPH
gust
MPH
rain 1hr
in
rain 24hr
in
rain mn
in
humidity
%
barometer
mb
20260502163102 56 344 2.0 9.0 0.00 0.00 0.00 62 1017.6
20260502161554 54 312 3.0 12.0 0.00 0.00 0.00 60 1017.7
20260502151555 55 274 4.0 10.0 0.00 0.00 0.00 56 1017.6
20260502123051 46 92 0.0 3.0 0.00 0.00 0.00 84 1016.9
20260502121552 43 0 0.0 2.0 0.00 0.00 0.00 91 1016.9
20260502114553 39 334 0.0 2.0 0.00 0.00 0.00 93 1016.9
20260502113054 39 0 0.0 0.0 0.00 0.00 0.00 94 1017.0
20260502111552 38 0 0.0 0.0 0.00 0.00 0.00 94 1016.9
20260502110055 38 0 0.0 0.0 0.00 0.00 0.00 94 1016.7
20260502104550 37 0 0.0 0.0 0.00 0.00 0.00 93 1016.6
20260502103048 38 0 0.0 0.0 0.00 0.00 0.00 92 1016.5
20260502101552 38 0 0.0 0.0 0.00 0.00 0.00 92 1016.4
20260502064551 43 0 0.0 1.0 0.00 0.00 0.00 79 1016.4
20260502063049 44 0 0.0 3.0 0.00 0.00 0.00 78 1016.5
20260502061553 44 0 0.0 2.0 0.00 0.00 0.00 77 1016.4
20260502060054 43 0 0.0 3.0 0.00 0.00 0.00 78 1016.5
20260502054556 43 0 0.0 0.0 0.00 0.00 0.00 79 1016.6
20260502053114 44 0 0.0 1.0 0.00 0.00 0.00 77 1016.6
20260502051604 44 317 0.0 2.0 0.00 0.00 0.00 77 1016.7
20260502050120 43 0 0.0 1.0 0.00 0.00 0.00 79 1016.6
20260502044547 43 0 0.0 1.0 0.00 0.00 0.00 79 1016.8
20260502043105 43 0 0.0 3.0 0.00 0.00 0.00 80 1016.9
20260502041604 43 0 0.0 0.0 0.00 0.00 0.00 81 1017.0
20260502040052 43 0 0.0 0.0 0.00 0.00 0.00 80 1017.2
20260502034553 43 0 0.0 0.0 0.00 0.00 0.00 81 1017.2
20260502033104 44 0 0.0 0.0 0.00 0.00 0.00 79 1017.3
20260502031551 45 0 0.0 0.0 0.00 0.00 0.00 78 1017.3
20260502030058 46 0 0.0 0.0 0.00 0.00 0.00 75 1017.2
20260502024556 47 0 0.0 0.0 0.00 0.00 0.00 74 1017.1
20260502023055 47 0 0.0 0.0 0.00 0.00 0.00 73 1016.7
20260502021603 47 0 0.0 0.0 0.00 0.00 0.00 71 1016.7
20260502020055 47 0 0.0 0.0 0.00 0.00 0.00 70 1016.4
20260502014553 48 0 0.0 2.0 0.00 0.00 0.00 70 1016.3
20260502013059 48 304 0.0 2.0 0.00 0.00 0.00 69 1016.2
20260502011603 50 0 0.0 3.0 0.00 0.00 0.00 67 1015.9
20260502004602 53 352 1.0 7.0 0.00 0.00 0.00 58 1014.7
20260502003053 54 304 2.0 5.0 0.00 0.00 0.00 56 1014.9
20260502001603 55 326 1.0 5.0 0.00 0.00 0.00 54 1014.5
20260502000054 55 295 2.0 7.0 0.00 0.00 0.00 54 1014.3
20260501234556 56 290 4.0 8.0 0.00 0.00 0.00 55 1014.3
20260501233108 56 304 4.0 8.0 0.00 0.00 0.00 51 1013.9
20260501231631 57 338 4.0 12.0 0.00 0.00 0.00 47 1014.0
20260501230058 58 352 4.0 10.0 0.00 0.00 0.00 45 1014.0
20260501224554 59 322 4.0 10.0 0.00 0.00 0.00 43 1013.8
20260501223142 59 305 2.0 11.0 0.00 0.00 0.00 46 1013.6
20260501221551 60 300 5.0 14.0 0.00 0.00 0.00 44 1013.8
20260501220052 59 321 7.0 15.0 0.00 0.00 0.00 43 1013.8
20260501214548 60 304 3.0 13.0 0.00 0.00 0.00 47 1013.9
20260501213047 60 315 4.0 14.0 0.00 0.00 0.00 46 1013.9
20260501211552 60 292 7.0 15.0 0.00 0.00 0.00 42 1013.8
20260501210048 62 304 7.0 16.0 0.00 0.00 0.00 41 1013.9
20260501204605 62 300 6.0 17.0 0.00 0.00 0.00 40 1014.0
20260501203048 61 341 7.0 15.0 0.00 0.00 0.00 42 1014.1
20260501201551 62 285 5.0 12.0 0.00 0.00 0.00 41 1014.1
20260501200051 62 314 10.0 17.0 0.00 0.00 0.00 43 1014.3
20260501194556 62 295 3.0 12.0 0.00 0.00 0.00 47 1014.3
20260501193052 61 344 6.0 15.0 0.00 0.00 0.00 49 1014.4
20260501191559 61 293 6.0 16.0 0.00 0.00 0.00 50 1014.5
20260501190053 60 251 5.0 14.0 0.00 0.00 0.00 51 1014.5
20260501184555 62 279 4.0 13.0 0.00 0.00 0.00 51 1014.4
20260501183054 58 307 8.0 15.0 0.00 0.00 0.00 59 1014.6
20260501181557 59 311 7.0 17.0 0.00 0.00 0.00 60 1014.7
20260501180105 60 290 7.0 14.0 0.00 0.00 0.00 56 1014.8
20260501174608 59 213 5.0 12.0 0.00 0.00 0.00 57 1014.8
20260501173050 58 286 7.0 15.0 0.00 0.00 0.00 61 1015.2
20260501171556 57 300 6.0 10.0 0.00 0.00 0.00 63 1015.2